Theta_e
361 356 358 358 359 357 360 358 360 358 353 359 356 351 348 344 340 338 336 339 344 348 350 351 354 363 362 363 363 361 358 359 358 358 363 359 356 353 351 354 353 352 352 352 352 354 353 353 352 349 349 346 345 343 342 340 338 337 335 333 333 333 333 332 332 332 332 332 332 333 333 335 338 339
360 362 359 359 356 360 359 356 353 358 353 354 356 358 357 352 343 342 338 339 347 347 350 348 353 359 359 363 360 363 367 360 357 359 358 363 360 353 349 352 351 351 351 350 349 351 351 352 351 349 345 344 343 341 339 339 338 336 333 332 332 332 331 330 331 331 330 331 332 332 333 335 337 337
361 359 358 364 363 365 359 359 355 359 361 357 356 356 355 355 351 353 345 336 344 354 347 350 356 351 354 363 359 361 362 361 358 360 358 361 361 356 352 352 350 349 349 347 347 347 348 346 344 343 344 342 340 339 338 337 336 335 331 330 330 330 329 329 330 330 330 330 332 332 333 335 336 337
361 357 358 361 362 364 366 361 362 361 363 360 357 358 357 357 358 352 348 341 344 352 354 355 357 356 355 354 361 361 363 366 360 362 360 361 362 358 355 352 350 348 347 345 344 343 342 339 340 343 343 342 341 339 337 335 335 332 330 328 328 327 326 327 329 329 329 330 331 331 333 334 335 336
360 361 358 360 361 363 360 361 361 358 357 353 350 351 362 358 352 354 350 345 346 351 358 358 357 358 357 353 356 357 359 357 359 359 358 360 361 358 359 355 349 346 344 343 341 340 339 337 338 341 342 342 340 338 335 333 332 330 329 327 326 325 325 326 328 328 328 329 330 331 332 333 334 335
359 360 359 359 360 361 356 356 355 354 352 351 350 349 352 349 351 355 352 348 346 346 350 354 359 355 359 354 359 356 355 354 360 359 358 361 360 362 362 356 354 345 344 341 340 339 337 335 336 339 341 342 340 338 334 332 329 329 327 326 324 324 324 323 325 326 327 328 329 330 332 332 332 333
357 355 357 359 359 361 357 356 355 355 351 350 348 349 351 350 352 354 355 351 348 348 348 353 353 353 355 354 355 357 358 358 358 357 357 358 360 363 364 361 358 346 343 341 339 337 336 335 335 336 337 339 339 337 335 332 329 327 324 323 323 323 323 321 322 324 325 325 328 329 329 330 330 331
357 356 354 354 356 355 352 352 353 352 350 349 352 354 354 350 348 355 360 357 350 350 348 348 351 353 352 355 358 360 360 357 356 356 360 360 360 359 364 363 361 351 343 341 338 337 336 334 333 333 335 335 333 333 330 327 326 324 324 322 322 321 320 319 319 321 322 323 322 325 327 328 328 328
355 354 354 355 354 353 353 353 355 354 351 351 349 347 347 350 354 355 353 351 352 346 343 346 353 356 356 357 357 357 354 354 357 360 359 359 357 356 357 364 364 350 342 342 339 336 336 335 333 333 332 332 330 330 329 327 325 324 323 319 320 321 320 319 318 318 319 320 320 321 324 325 326 327
357 356 355 354 355 354 351 351 351 350 350 351 351 349 348 350 355 355 354 354 353 351 350 351 350 349 352 352 353 357 358 358 353 351 354 358 358 357 357 361 358 352 347 346 343 337 335 334 332 333 331 330 328 327 327 327 325 322 319 316 319 321 318 317 316 317 317 318 318 318 320 322 324 326
356 355 354 354 354 353 353 353 352 352 352 353 351 352 353 354 352 351 350 351 353 353 352 352 353 352 354 355 353 355 359 358 357 351 350 348 353 357 357 358 359 353 350 347 343 341 339 337 334 329 328 328 328 327 326 326 324 321 318 316 317 317 317 318 316 315 315 317 317 318 318 318 321 323
352 352 353 353 352 353 352 352 351 351 351 352 350 349 349 348 347 348 351 351 351 350 350 348 349 350 350 348 349 351 350 348 347 349 347 343 344 348 359 363 355 357 351 349 347 343 339 337 335 330 329 329 328 327 326 328 328 324 320 319 322 321 318 317 316 315 315 315 315 316 317 317 318 319
352 352 352 352 351 354 365 361 359 358 359 351 351 351 352 352 351 349 349 349 347 348 348 347 348 346 346 346 347 347 345 344 344 348 352 351 352 353 357 356 360 362 357 354 353 346 342 339 335 331 328 328 330 329 329 328 330 327 321 321 324 322 319 317 316 315 314 314 314 314 316 316 316 317
351 352 351 351 363 367 370 367 359 355 358 361 354 349 352 351 351 352 351 351 351 352 349 350 348 348 348 348 348 347 348 349 349 349 349 346 348 348 350 352 357 361 358 352 348 350 346 343 339 333 331 331 335 329 327 325 328 327 322 323 324 322 320 318 316 315 314 314 315 314 313 314 315 315
348 348 349 348 356 361 367 367 361 355 351 352 354 356 360 363 354 351 351 350 351 349 350 349 350 349 347 348 348 347 348 347 346 344 342 346 352 348 344 340 345 357 357 350 348 352 351 346 343 339 336 336 333 332 328 327 329 326 323 323 324 323 321 320 318 316 314 315 316 315 314 314 315 315
349 348 347 346 347 346 345 344 352 357 351 346 346 347 349 352 358 357 354 351 350 350 351 350 351 350 349 349 349 349 350 349 346 346 346 347 345 342 341 340 341 345 361 351 346 347 350 355 353 349 345 342 338 335 331 327 326 325 324 323 323 322 322 321 321 319 316 317 318 319 318 316 317 315
349 349 348 347 347 346 360 362 351 351 353 345 340 342 346 349 347 340 341 347 350 348 350 350 350 350 351 349 350 351 350 347 345 345 347 346 345 344 343 342 343 347 353 351 349 349 351 350 350 351 355 351 345 339 331 328 327 325 323 323 323 322 322 321 321 319 318 317 315 313 313 315 315 314
349 348 348 347 346 346 346 345 344 347 350 349 348 346 345 344 349 347 340 336 338 343 344 341 340 342 345 346 347 350 349 349 349 348 347 347 347 347 348 349 349 351 362 353 347 346 350 352 351 348 350 341 344 338 331 328 327 324 322 322 322 321 321 321 320 319 318 318 316 314 312 311 310 311
348 348 349 348 347 346 345 346 347 343 345 349 349 346 345 344 344 345 346 346 345 343 342 340 340 340 340 340 341 343 345 349 351 352 351 351 352 353 352 352 354 356 357 356 350 345 347 349 347 348 347 336 334 330 326 327 326 324 322 322 321 320 321 321 320 319 317 317 316 315 313 311 311 311
348 348 348 347 347 346 346 351 345 350 347 344 348 350 350 348 347 346 350 340 342 349 346 344 344 344 344 340 343 342 341 342 347 353 355 354 353 351 348 346 350 349 354 355 351 346 347 351 349 349 345 334 330 327 325 325 325 323 322 321 320 319 318 320 320 319 318 317 317 315 312 310 308 310
346 346 346 347 348 348 347 348 337 335 348 347 345 346 349 353 354 354 356 342 334 334 333 333 335 335 334 333 331 329 330 338 341 345 346 346 351 346 344 345 347 350 354 353 354 350 346 349 350 349 342 336 330 325 323 323 323 323 321 320 320 318 316 318 319 318 318 318 317 315 314 311 309 310
347 348 356 359 347 345 345 338 333 332 342 346 347 347 346 345 344 345 348 351 350 334 331 331 331 331 331 331 331 332 332 331 337 338 337 340 341 342 342 340 341 341 343 345 345 340 339 341 345 346 344 339 335 328 324 323 322 322 320 318 318 317 316 315 317 318 318 318 317 315 313 311 311 313
350 350 355 357 352 349 345 332 331 330 340 343 345 347 347 346 345 346 347 346 346 345 344 345 345 344 343 344 343 344 338 338 345 341 341 343 343 341 342 343 342 340 343 347 347 340 338 338 339 343 337 336 341 334 328 324 321 321 321 320 318 317 315 314 314 313 316 317 316 315 313 310 310 317
348 350 351 351 334 329 329 327 326 327 326 342 344 345 344 343 343 346 347 347 347 345 346 347 348 350 351 351 350 348 347 347 349 343 343 344 345 344 344 344 343 341 342 345 346 341 340 343 342 343 341 336 335 335 327 324 322 320 319 319 318 318 319 318 315 314 313 313 314 314 313 310 310 317
347 348 350 351 342 327 323 322 321 321 322 329 344 346 345 345 346 349 347 349 363 351 349 349 349 350 351 352 352 350 349 348 349 347 343 345 346 346 345 344 344 344 347 350 345 344 342 342 339 339 339 339 338 333 330 326 324 322 321 319 317 317 317 317 317 316 314 312 311 310 310 311 310 313
349 349 349 351 345 330 323 321 319 318 320 322 336 344 331 331 332 344 350 350 350 351 351 351 351 350 349 350 354 354 353 353 353 352 351 348 348 349 349 348 346 345 346 353 342 347 344 342 342 340 340 340 344 338 331 330 330 325 322 321 319 318 319 317 318 317 317 316 316 312 313 312 313 312
350 352 352 354 351 330 321 317 317 318 319 321 330 323 323 325 327 338 346 348 349 349 349 349 348 348 348 348 348 349 352 356 356 356 355 355 353 352 352 353 353 352 353 353 354 349 345 343 347 344 343 345 341 338 336 335 336 329 324 323 323 322 324 317 316 317 320 320 319 315 311 311 311 313
351 351 352 338 310 309 308 311 310 312 316 326 319 316 319 322 327 338 342 342 345 345 345 345 346 347 348 348 348 348 349 351 354 356 357 358 358 357 356 355 354 355 355 354 353 351 350 348 350 352 350 346 343 341 341 339 338 332 329 328 327 327 328 321 318 322 326 325 322 320 318 317 317 314
344 336 318 310 312 314 313 313 313 312 313 311 313 315 317 324 331 335 338 341 343 342 342 343 344 345 346 348 349 350 350 350 351 350 352 354 357 358 359 358 356 355 355 356 354 353 351 350 349 349 349 349 347 345 343 343 342 337 335 332 329 331 333 328 322 321 325 328 325 323 320 320 319 319
324 320 318 317 318 321 325 332 333 335 336 323 317 316 320 328 331 334 337 339 340 341 342 343 343 345 347 347 349 349 349 348 348 348 348 348 348 350 352 353 355 357 358 356 355 354 352 351 350 350 349 350 351 349 348 346 345 342 337 336 335 333 334 332 328 327 328 328 329 328 325 323 322 320
325 326 326 328 325 326 328 330 331 333 337 340 337 330 329 329 331 334 336 339 340 341 342 342 344 345 347 348 347 347 347 347 348 348 346 346 347 347 348 348 348 350 355 358 357 355 353 352 352 354 352 352 352 352 352 350 348 343 338 337 334 334 330 332 331 329 329 330 330 330 328 325 326 330
338 340 335 332 338 340 342 343 343 342 341 339 339 341 338 334 334 337 339 341 341 342 344 345 345 345 346 346 346 347 347 347 347 348 347 346 346 346 346 344 345 347 349 353 356 357 359 353 352 352 353 353 350 351 351 350 350 349 347 338 335 337 331 330 330 329 329 329 328 328 328 327 327 329
341 342 343 343 343 343 342 342 343 343 343 343 343 343 343 342 339 337 337 338 339 341 341 342 344 344 346 346 346 346 346 346 347 349 349 349 348 348 347 345 344 344 344 346 350 353 356 356 355 354 353 353 353 351 349 347 349 351 350 345 336 335 334 330 330 329 328 326 326 327 327 328 328 328
334 337 339 340 342 343 343 343 343 343 344 344 344 344 337 343 344 341 339 340 341 341 341 342 342 343 344 345 346 346 345 347 347 346 342 348 350 349 348 347 347 348 347 347 348 349 351 354 354 355 355 354 356 355 354 350 349 350 351 350 340 337 336 333 329 329 328 328 326 324 324 326 327 326
335 336 337 339 340 341 342 342 344 345 345 345 344 345 346 346 344 341 343 343 340 340 341 341 342 342 343 343 344 345 345 346 347 348 347 347 348 348 349 348 348 348 349 348 349 350 350 350 350 351 349 351 352 354 352 356 352 351 350 348 347 341 339 334 330 328 328 328 326 324 324 325 326 327
330 334 335 337 339 341 341 342 343 345 346 346 347 348 347 347 347 345 344 343 345 343 342 342 341 342 343 344 343 344 344 342 345 347 347 347 347 347 348 348 348 349 350 350 350 352 351 350 350 349 347 346 345 346 349 347 350 356 350 349 347 344 340 335 331 329 327 327 326 325 323 323 325 327
327 330 332 334 335 337 338 340 342 344 345 347 348 349 349 349 348 348 349 345 347 345 345 344 343 344 343 343 343 341 342 342 344 345 346 347 348 347 347 347 346 348 349 351 353 352 352 351 350 350 348 346 344 343 346 347 341 340 356 352 349 346 342 334 331 327 328 328 327 326 325 325 325 327
326 328 330 332 334 336 337 339 340 341 343 345 347 348 349 351 352 351 351 350 347 345 345 345 344 344 345 344 344 345 345 345 345 345 344 346 346 346 347 347 348 348 349 350 351 352 352 352 351 350 349 346 344 343 343 343 343 343 335 352 351 350 341 334 331 330 328 328 327 328 327 325 326 328
323 325 328 330 332 334 336 338 339 340 342 344 345 346 348 350 352 352 351 350 351 346 343 343 344 344 344 347 345 345 345 345 345 345 345 346 346 346 345 346 346 347 348 348 350 351 351 351 351 350 350 347 345 346 344 343 344 347 338 328 349 352 346 339 337 334 331 328 328 328 329 326 323 326
326 327 328 329 331 333 335 337 339 341 342 343 345 346 347 347 349 349 350 349 346 342 344 343 343 340 344 344 344 347 348 346 346 347 346 345 344 344 345 345 346 346 345 345 345 346 349 350 351 351 347 344 345 345 344 343 346 345 346 336 325 345 351 345 342 340 334 332 330 327 326 324 326 324
332 332 333 333 333 334 335 337 339 341 342 344 345 340 346 347 347 347 348 348 346 344 346 346 345 343 345 346 346 345 345 344 345 346 345 344 340 340 338 335 342 343 343 343 345 345 346 350 349 332 343 347 347 346 342 342 341 345 344 346 326 322 329 336 347 343 340 334 330 328 326 325 325 323
333 335 336 338 338 339 339 339 340 341 342 344 345 346 347 347 347 339 345 343 346 345 348 348 346 344 345 347 347 343 343 344 344 343 343 343 343 340 335 336 340 342 342 342 343 345 349 351 345 343 346 346 345 341 339 339 340 342 345 347 345 328 322 322 328 332 345 335 330 328 326 324 324 323
332 334 336 338 340 342 343 343 344 345 345 346 347 348 348 349 350 349 349 349 346 345 346 346 347 347 347 347 347 346 344 343 343 344 343 342 342 343 342 342 341 342 342 343 345 347 348 347 346 345 345 344 343 342 340 340 341 342 343 345 346 343 339 324 321 320 322 326 327 332 333 330 324 322
334 336 338 340 342 344 347 348 348 348 348 349 350 351 351 351 352 353 353 351 345 343 343 343 344 346 346 347 347 346 345 345 345 344 344 343 343 343 343 343 341 342 343 343 344 346 345 343 344 344 342 342 342 340 340 340 340 340 342 344 343 339 339 337 334 324 321 320 318 318 320 324 328 329
330 329 328 329 331 333 335 337 337 336 337 337 337 338 338 340 341 345 349 344 342 342 342 343 343 344 345 345 345 344 345 337 339 342 342 342 342 340 340 340 340 341 342 344 344 344 345 342 342 345 344 343 342 341 340 339 339 339 341 342 342 342 342 334 333 332 332 333 325 314 316 317 319 321
Wind_Speed
3 3 4 3 4 3 3 2 2 1 2 2 1 4 4 3 2 1 2 2 1 4 2 2 3 3 3 4 3 3 3 5 4 3 4 4 4 7 9 9 8 8 8 6 6 6 5 5 4 3 2 1 1 3 3 4 5 6 7 8 9 10 10 11 12 12 12 12 11 9 8 7 8 8
3 3 1 3 4 2 3 5 1 2 2 1 0 1 3 4 2 1 1 2 2 2 3 0 1 2 4 4 5 3 4 7 6 3 3 4 5 9 10 10 9 8 8 8 7 7 7 6 5 4 3 2 1 1 2 3 4 5 6 7 8 8 10 10 11 12 12 12 10 9 8 8 8 9
3 3 2 0 1 2 2 2 0 2 2 2 2 1 4 3 4 3 2 0 3 0 2 3 3 2 2 3 4 1 4 5 5 3 3 3 8 10 8 10 9 8 9 9 8 8 8 7 6 5 4 3 2 1 1 3 3 4 5 6 6 8 8 9 10 11 12 11 10 9 9 8 9 9
3 4 3 3 1 2 1 2 0 1 2 3 3 3 3 3 3 4 2 2 6 3 2 4 5 5 4 4 1 1 3 2 4 3 3 3 4 6 4 8 10 9 9 9 9 9 8 8 7 6 6 5 4 2 0 1 3 3 4 5 5 6 7 8 9 10 12 11 10 9 9 9 9 8
2 2 3 3 3 2 1 2 3 3 3 3 4 3 3 5 3 4 4 4 6 5 2 2 3 5 4 5 4 5 4 3 2 4 4 4 3 4 5 5 8 9 9 10 10 10 9 9 8 7 6 6 5 3 2 1 1 2 3 4 4 5 6 8 8 9 10 11 10 10 9 9 9 8
4 3 3 3 2 2 3 3 4 3 4 3 3 4 3 4 5 4 4 5 4 5 3 2 4 3 2 4 3 3 4 5 4 4 4 4 3 4 4 5 6 10 10 10 10 10 10 10 9 8 7 6 5 5 3 3 2 2 2 3 3 4 6 7 8 8 8 9 10 10 10 9 9 8
4 4 3 3 3 3 3 4 5 5 5 3 3 5 4 5 5 4 5 3 3 5 4 3 2 1 2 2 4 5 5 4 4 4 5 5 4 1 5 5 5 9 11 11 11 11 11 10 10 9 8 7 6 5 5 3 2 2 2 3 2 3 4 6 6 7 7 8 10 10 10 9 8 8
4 4 4 4 3 4 4 5 5 5 5 5 4 2 2 4 4 4 4 5 4 3 3 2 2 2 3 3 4 4 5 5 6 5 5 3 2 3 2 5 5 8 13 12 12 12 12 11 10 9 9 8 7 6 6 4 3 3 3 1 1 2 3 4 5 6 6 7 8 9 9 9 9 7
5 5 5 5 4 4 4 4 4 5 4 4 4 5 4 3 3 3 1 3 4 3 4 4 2 2 2 3 5 5 5 6 4 3 3 4 4 4 4 2 5 6 13 11 11 12 12 11 11 10 10 9 9 8 7 6 5 5 3 2 2 2 2 3 3 4 5 6 7 8 9 9 9 8
5 5 6 6 5 5 5 6 5 4 4 4 5 5 5 4 3 3 3 3 3 3 4 4 5 3 5 4 4 5 3 5 5 5 5 5 4 3 5 1 3 2 4 5 6 8 9 10 11 11 10 10 10 9 8 7 7 6 5 4 3 2 3 2 2 3 4 5 5 6 7 9 9 8
5 5 5 4 5 5 5 5 5 5 5 5 5 5 4 4 3 3 3 3 3 3 4 4 4 5 4 4 5 5 3 3 4 4 5 5 5 2 3 5 2 2 4 6 9 9 9 8 9 10 11 11 11 10 9 9 8 7 6 5 5 4 4 3 1 2 3 4 4 5 6 7 9 9
5 5 5 6 6 6 6 6 5 5 6 4 5 6 4 5 4 5 5 4 4 3 3 3 5 3 4 4 3 4 4 5 6 3 4 6 7 7 3 5 4 3 5 5 6 6 5 6 9 9 10 12 13 11 10 10 8 9 7 6 6 5 5 5 3 1 1 3 4 5 5 6 7 9
7 7 6 7 7 7 11 13 11 10 9 6 6 6 5 5 5 5 4 5 6 5 5 6 4 4 6 6 6 6 5 6 7 6 2 3 5 6 5 6 4 3 4 4 5 5 7 6 6 6 6 8 9 9 9 7 11 10 8 8 7 7 6 5 5 3 1 2 3 4 5 5 6 7
7 8 8 7 11 14 14 15 16 16 15 13 9 7 5 6 5 5 5 5 5 5 5 6 5 6 7 7 6 6 6 5 4 5 5 4 6 3 4 4 4 4 3 3 4 5 5 6 5 5 8 7 8 7 7 8 8 10 10 9 8 9 8 7 6 4 2 1 2 3 4 4 5 6
8 7 7 8 10 11 10 9 14 15 16 15 14 13 11 9 7 6 6 6 5 5 6 6 5 6 7 8 7 6 8 6 6 6 4 5 3 2 2 4 5 3 4 3 2 6 3 6 6 7 8 7 7 8 9 11 12 12 12 11 10 10 9 8 7 5 4 3 2 2 3 3 4 5
7 8 7 6 6 7 9 10 7 11 15 16 16 15 14 13 13 11 9 7 5 5 6 7 7 6 7 9 6 7 6 7 4 5 4 4 5 4 3 3 3 4 1 3 3 8 2 6 7 6 8 8 8 10 10 13 14 13 13 12 11 10 10 9 8 6 5 5 4 4 3 2 2 3
8 7 7 7 6 6 10 7 5 5 7 13 17 17 17 16 14 13 13 11 9 7 6 7 8 7 7 7 8 7 5 2 4 5 5 3 3 3 5 6 4 7 3 3 3 6 6 2 4 6 6 7 7 7 9 15 15 15 13 13 12 11 10 9 8 7 7 5 5 4 3 2 1 2
7 8 8 8 7 7 8 8 8 5 6 6 6 7 7 8 11 13 13 13 13 8 7 7 8 10 5 9 9 10 3 4 7 6 7 5 4 5 6 5 6 6 2 5 2 4 7 5 6 7 7 2 4 4 9 16 16 15 14 13 13 12 11 10 9 8 7 6 5 5 5 3 2 1
9 8 9 8 9 8 7 8 9 9 7 5 6 6 7 8 9 8 8 8 8 8 8 8 10 12 10 10 11 11 8 8 9 8 8 5 5 6 4 4 4 6 4 4 2 6 7 4 4 7 6 2 2 1 7 15 16 15 14 14 13 12 11 10 10 9 8 6 6 6 5 4 4 3
8 8 8 8 9 8 7 10 13 12 9 7 7 8 8 8 8 8 10 13 12 10 9 9 11 11 13 14 12 11 10 8 8 6 4 3 5 6 6 8 6 6 5 4 4 3 5 5 5 7 1 4 4 2 3 10 14 14 14 13 12 12 11 11 11 10 8 7 6 6 5 5 5 4
6 6 5 6 6 6 6 8 11 12 10 7 8 8 8 8 8 9 7 12 17 17 17 17 18 18 18 18 18 18 17 12 8 4 5 8 5 4 6 6 5 7 5 3 5 4 6 5 4 7 3 5 4 5 6 6 9 12 12 12 12 12 12 12 12 10 9 7 7 6 6 5 4 4
8 9 14 11 8 8 8 11 11 11 6 6 8 8 9 10 10 9 7 7 9 16 19 19 18 17 15 15 16 16 16 16 9 5 9 11 5 6 6 8 7 6 7 8 4 3 8 6 3 5 0 1 1 4 4 5 6 8 8 10 12 12 12 12 12 10 9 9 7 7 7 6 3 2
9 9 11 16 14 11 12 15 14 14 10 8 9 9 9 11 12 12 9 9 10 7 6 7 7 8 12 12 11 12 18 17 11 8 11 9 7 8 8 8 5 6 9 7 6 6 4 3 5 3 1 2 3 3 6 6 5 6 5 6 8 11 12 12 11 10 10 9 8 8 7 7 3 2
9 10 10 11 15 17 16 16 16 16 15 12 11 10 11 12 15 13 9 8 9 9 9 9 7 8 7 7 7 8 9 11 10 10 10 10 9 9 9 9 7 8 6 4 7 5 4 3 5 3 5 4 4 2 4 5 7 6 6 5 7 9 10 10 9 11 11 10 10 8 8 7 4 3
9 9 9 8 12 16 17 17 18 18 18 16 13 12 12 13 15 11 7 9 12 10 8 8 8 7 6 6 6 7 7 8 8 8 10 10 10 10 10 10 9 10 11 12 6 4 6 5 6 4 4 3 3 2 3 3 5 7 8 8 7 6 6 7 5 6 8 11 11 10 8 8 7 5
8 9 8 7 10 15 17 18 18 19 19 20 13 14 18 19 17 13 10 9 7 7 6 6 6 6 5 6 5 6 7 8 8 8 8 10 11 11 11 11 11 10 12 13 12 8 8 6 8 7 5 5 5 4 2 3 5 7 6 7 7 7 7 7 6 6 6 6 6 7 9 11 9 9
10 9 8 9 14 16 15 16 17 18 21 17 13 19 19 19 19 14 9 9 8 8 7 7 8 7 6 7 8 8 8 8 8 8 9 10 10 11 11 12 12 13 13 12 7 7 8 7 5 8 8 6 6 3 4 4 4 4 5 8 9 8 7 6 7 7 6 7 7 9 10 9 8 8
9 9 8 2 7 7 7 5 8 13 14 11 14 15 17 18 16 9 9 9 9 8 8 8 9 9 8 8 8 10 9 8 7 7 8 9 10 11 11 12 14 14 14 12 10 7 8 9 8 7 8 7 7 7 7 4 3 7 8 7 7 7 7 8 8 6 6 6 6 6 5 6 6 5
10 10 4 8 12 12 14 14 10 7 10 14 15 16 16 12 6 8 9 9 8 8 10 10 9 9 9 9 10 9 8 7 7 8 9 8 8 8 9 11 11 12 11 10 10 9 9 10 10 9 6 5 7 7 6 8 6 5 7 6 4 8 9 9 8 8 8 7 7 7 9 8 7 6
14 15 17 19 19 16 13 8 5 5 6 9 12 14 12 6 7 7 8 8 8 10 10 10 10 10 8 8 8 8 7 8 10 9 10 9 11 9 8 7 9 9 10 10 11 10 10 10 10 10 9 8 8 10 8 8 7 5 6 8 6 1 6 8 9 9 8 9 9 9 8 7 8 8
8 11 11 10 13 13 16 15 14 14 12 9 7 5 5 6 7 7 8 9 9 10 10 10 9 9 8 7 6 8 8 10 10 8 9 9 11 10 9 10 12 10 9 9 10 10 10 10 10 9 10 10 8 9 9 6 8 5 6 7 6 8 6 9 9 9 9 8 7 7 5 6 6 8
6 7 7 8 7 6 7 7 7 7 7 8 8 8 7 8 8 9 10 9 9 10 9 8 8 7 6 8 9 8 9 10 9 7 9 10 11 10 9 9 13 11 10 8 9 10 10 10 9 9 11 10 11 9 6 6 8 8 7 7 8 8 4 9 9 10 9 7 6 8 8 8 9 8
7 6 6 6 7 7 7 7 7 7 7 7 7 9 9 8 7 7 7 9 11 10 9 10 10 10 8 10 9 9 9 10 9 8 9 11 11 11 9 12 13 11 11 10 8 7 7 9 9 10 10 10 11 10 7 7 8 8 9 7 7 8 8 7 8 9 6 6 9 8 9 8 9 9
6 6 7 7 7 8 7 8 8 7 7 7 8 8 8 8 7 8 9 10 10 8 9 9 9 10 10 11 10 9 10 10 10 11 12 12 10 10 11 12 12 11 10 11 10 9 7 7 6 7 7 8 8 10 10 10 9 8 9 7 8 9 9 7 8 9 10 11 11 10 8 9 9 8
6 6 7 8 8 8 8 9 9 8 8 8 8 8 8 7 9 9 9 10 9 9 9 10 10 10 10 11 10 10 11 11 11 11 10 11 11 11 11 12 13 11 10 10 10 7 6 6 5 5 4 4 6 7 7 9 9 10 7 7 7 8 8 8 8 8 9 8 6 10 9 8 9 8
7 6 8 8 9 8 9 10 9 9 9 9 9 9 8 8 8 9 9 9 9 10 9 9 10 10 11 11 12 12 12 12 12 12 11 10 11 11 11 12 12 10 9 10 10 7 6 7 6 7 8 6 6 9 9 10 14 10 9 8 7 8 7 7 8 7 8 9 8 9 10 12 11 9
7 8 8 9 9 9 10 10 9 10 10 10 10 9 10 9 7 7 8 9 9 10 10 9 10 10 11 13 14 13 13 13 13 13 11 10 9 10 10 10 10 10 9 10 8 7 6 7 7 8 9 8 9 12 11 3 12 14 10 11 8 6 7 5 6 7 9 10 10 11 13 10 10 9
9 8 8 9 9 9 9 9 9 10 10 10 10 10 10 10 8 7 6 7 8 8 6 1 2 9 14 15 14 13 12 12 11 10 9 8 9 10 10 11 10 9 10 9 8 8 7 8 8 8 9 10 10 10 11 2 2 7 13 13 10 8 6 6 7 9 9 8 11 12 8 9 11 9
7 9 9 9 9 9 10 10 10 11 10 10 10 10 10 9 9 8 7 8 8 2 9 3 10 16 17 13 11 11 12 10 9 10 11 10 11 11 11 11 10 10 8 9 7 7 7 8 10 8 9 9 10 8 5 8 12 9 10 19 14 10 8 9 10 9 8 9 10 7 7 3 3 2
8 8 8 9 9 9 9 9 9 10 10 10 11 10 10 10 9 9 8 7 4 9 10 13 15 16 14 12 10 9 11 12 12 12 13 12 12 11 11 10 9 9 8 9 9 6 7 8 10 9 1 4 2 5 10 12 10 2 6 14 24 19 12 10 11 11 10 11 7 7 9 5 8 1
7 7 8 8 9 9 9 9 9 9 10 10 10 10 11 11 11 11 10 9 6 10 11 12 11 11 12 13 13 12 12 12 11 12 13 12 11 10 11 9 9 8 8 10 10 9 9 8 5 19 8 8 9 1 2 8 13 12 8 9 15 23 22 18 15 12 11 8 9 11 11 11 10 6
8 9 9 8 8 10 9 10 9 9 10 10 10 10 11 11 11 14 14 14 10 11 10 6 6 11 15 16 13 9 10 11 11 12 11 10 10 9 11 9 10 10 9 11 12 11 7 1 10 9 7 7 6 5 9 13 15 13 10 9 6 13 21 22 19 15 11 9 10 9 8 4 3 6
8 9 9 9 8 9 9 10 9 9 10 10 10 11 11 11 10 11 10 12 11 11 6 7 9 11 13 12 12 8 6 9 9 10 10 10 10 10 10 9 10 9 8 10 11 9 7 2 7 8 7 9 9 9 12 15 12 11 10 9 9 6 7 14 19 19 16 14 19 19 16 12 8 9
7 7 7 7 7 7 6 6 6 7 7 7 7 7 7 8 9 9 9 6 5 7 8 8 12 15 12 10 8 6 6 8 6 7 9 10 10 9 9 7 6 5 7 9 9 9 5 4 6 8 8 9 8 9 13 11 11 11 11 11 7 4 8 6 7 11 13 12 14 16 17 19 22 23
6 6 6 7 8 8 8 8 8 7 8 7 7 7 7 7 7 8 8 0 8 8 9 12 13 12 11 9 8 8 9 8 8 10 8 8 6 6 5 5 6 8 11 12 10 10 7 6 6 7 7 8 8 10 11 11 10 8 9 8 10 9 8 4 6 8 9 12 9 5 10 11 15 16
Wind_Direction
281 300 254 213 248 271 304 299 77 51 73 83 119 129 149 158 122 303 340 297 321 310 35 177 270 260 260 250 254 274 215 217 213 193 160 180 195 199 186 187 197 165 162 174 194 205 213 205 186 166 135 73 39 21 20 16 25 26 21 16 15 9 3 359 2 10 13 14 15 20 23 25 26 26
244 277 265 223 225 277 323 298 259 189 162 179 164 102 160 142 140 180 144 274 254 273 310 115 26 296 284 276 278 225 231 215 214 218 166 184 205 202 192 190 194 175 164 173 189 202 206 208 199 171 149 135 103 43 2 5 7 30 24 19 15 10 5 358 2 12 13 14 19 21 26 27 26 26
246 259 301 252 199 257 277 282 11 247 168 209 238 140 182 157 147 159 144 349 286 246 318 298 325 308 272 276 276 206 200 212 216 211 233 198 211 200 192 193 196 178 171 174 192 202 209 208 202 183 155 156 160 177 12 350 355 17 29 22 16 11 3 359 6 13 14 16 21 24 25 24 28 28
239 232 246 275 265 260 270 319 313 219 235 192 226 234 208 201 171 153 149 190 261 276 261 288 301 317 326 309 351 303 283 270 218 225 248 265 210 184 198 201 202 187 178 181 191 203 207 211 210 199 179 176 179 161 129 330 352 359 16 24 15 7 4 3 10 15 17 20 24 26 25 26 22 27
238 199 219 229 241 239 327 280 292 314 289 262 244 225 193 207 208 172 189 207 254 294 272 264 295 314 337 330 354 4 340 336 288 255 254 250 182 191 200 198 204 197 188 184 193 202 208 214 216 213 198 188 175 174 173 270 295 334 2 19 11 3 6 5 10 16 18 24 26 27 25 21 19 23
262 261 217 223 231 246 239 271 287 273 279 262 254 272 249 227 224 209 177 220 226 261 314 319 316 313 359 331 308 327 314 310 316 306 290 285 268 203 194 180 202 207 196 193 194 203 210 217 220 219 213 204 184 183 192 223 269 295 345 358 3 4 7 8 6 14 16 6 18 22 19 16 14 17
234 245 225 227 222 217 222 235 241 250 263 248 213 236 232 230 241 225 202 176 239 260 270 250 294 281 312 293 297 309 306 301 294 295 292 280 284 203 179 191 205 200 203 199 196 204 212 218 220 219 216 213 199 190 192 206 234 260 282 297 7 345 359 14 0 4 10 3 10 17 19 16 16 17
219 227 239 243 221 221 228 237 233 238 249 271 279 263 244 228 230 215 183 193 197 216 243 290 247 276 297 290 272 272 287 291 296 283 274 283 280 286 211 194 213 197 201 203 197 205 214 217 220 219 214 216 211 199 185 192 214 234 249 287 305 320 350 6 4 359 4 6 3 4 13 17 20 20
215 226 223 231 229 231 238 251 224 229 235 257 275 285 278 252 262 295 239 217 192 209 258 278 271 244 260 256 283 281 291 295 293 285 266 263 272 285 280 215 199 193 199 200 202 210 216 217 221 218 213 213 215 209 197 198 203 224 229 251 263 280 316 8 358 354 351 360 360 2 8 17 21 24
218 213 218 227 220 226 230 246 244 237 248 255 254 260 266 271 269 250 264 268 264 244 243 230 284 292 269 291 276 281 265 262 283 300 291 296 281 278 305 279 149 152 169 190 209 224 226 225 225 222 216 214 216 214 202 199 201 212 218 226 241 253 286 302 353 347 345 349 350 0 359 10 18 24
220 217 218 220 224 230 225 226 227 228 234 238 240 223 227 244 246 255 252 246 243 240 254 271 249 266 274 241 275 284 264 258 236 258 302 302 286 282 243 279 218 186 206 228 216 213 209 207 214 222 219 218 220 215 209 204 200 203 212 218 228 235 257 271 270 331 342 349 356 352 355 1 13 18
234 229 229 230 226 224 229 225 232 219 230 224 234 238 238 241 247 259 261 265 261 266 272 256 273 260 262 308 281 288 333 323 309 264 222 258 281 283 263 230 230 219 194 218 228 222 207 217 223 224 224 226 225 218 213 210 200 202 202 215 219 223 239 246 245 239 0 358 354 358 353 4 5 16
226 229 232 233 230 224 225 226 225 226 223 219 228 240 221 227 230 242 244 242 246 258 262 279 279 288 294 285 290 299 295 274 253 271 267 261 255 260 264 278 263 226 209 229 205 194 194 199 208 206 222 228 222 224 210 209 205 199 199 204 217 217 229 238 231 211 111 12 357 347 356 3 8 13
223 226 229 233 228 227 226 227 228 230 231 229 223 224 214 216 220 224 224 227 224 232 247 252 260 277 274 269 264 263 258 254 273 289 281 266 274 288 272 285 274 245 232 263 276 243 187 196 203 196 231 231 213 222 207 214 192 196 194 198 209 215 224 231 225 214 146 69 332 334 337 356 6 12
224 228 228 231 241 247 250 244 234 232 233 233 233 232 223 210 203 213 218 224 219 220 236 245 248 248 259 261 252 251 262 264 258 256 255 239 251 249 268 283 306 290 217 267 250 283 201 178 203 218 230 225 212 214 221 201 191 192 191 195 204 211 217 222 223 209 182 177 233 291 310 346 2 7
218 224 226 227 228 234 240 251 238 229 232 233 233 233 232 227 218 205 196 212 221 217 231 243 242 240 246 257 255 257 255 259 274 267 272 264 258 260 249 232 240 256 200 225 276 280 255 187 213 222 230 225 215 216 207 186 188 191 192 193 202 206 211 219 221 209 196 191 206 230 285 324 356 8
222 221 227 235 235 238 238 238 240 230 237 236 235 233 235 237 235 233 229 216 212 207 219 230 244 230 244 257 259 247 250 233 258 274 277 268 254 239 252 250 263 280 235 245 261 268 272 212 254 257 239 215 220 216 190 183 187 192 192 194 198 201 206 214 219 214 204 193 203 214 240 266 333 356
226 223 222 227 236 238 242 246 247 228 222 231 239 250 253 254 259 255 247 248 250 242 228 227 241 252 229 247 256 263 271 271 264 263 263 264 276 277 256 241 246 262 226 225 221 278 287 270 267 266 266 254 222 199 181 178 187 189 189 193 194 200 204 210 217 218 209 199 202 213 224 219 205 213
222 222 225 227 233 236 237 236 236 242 234 224 233 240 242 241 243 242 245 241 235 231 228 230 239 252 254 248 252 260 255 242 247 246 253 252 250 261 277 300 272 283 251 225 188 255 267 276 269 267 253 196 168 121 176 182 186 188 188 192 194 200 202 208 217 218 210 204 207 221 223 211 202 191
223 220 221 225 233 237 237 241 240 238 237 231 228 230 238 243 241 239 233 232 233 230 222 223 231 238 243 246 247 248 249 252 252 261 277 276 268 275 286 274 283 275 266 219 216 239 257 253 253 271 214 147 180 167 179 197 188 187 190 192 195 202 203 209 215 216 213 208 210 220 225 222 218 207
236 232 216 212 218 227 236 243 247 248 248 251 244 236 236 238 241 243 237 228 230 233 233 234 234 236 240 247 252 256 259 259 269 305 302 270 249 271 277 274 275 269 272 245 209 218 256 252 239 268 213 188 177 194 201 193 201 195 195 196 202 206 206 211 215 215 215 211 212 219 226 227 232 229
232 236 238 232 224 225 231 227 228 233 225 240 246 247 248 250 248 248 240 244 234 229 236 242 246 251 257 261 265 267 266 261 246 212 245 254 252 253 244 262 260 277 281 258 178 251 258 267 228 245 311 98 193 199 198 186 195 204 213 214 214 214 212 216 220 217 220 218 213 222 228 225 214 222
232 233 235 238 237 236 241 239 236 234 220 229 236 239 244 251 254 252 242 241 253 254 245 248 245 253 247 248 248 251 253 254 246 215 232 246 232 244 253 255 272 290 272 259 158 213 264 259 258 207 211 264 253 175 180 185 190 198 205 216 226 227 221 225 225 225 227 227 224 223 231 235 190 201
239 234 234 234 234 235 239 240 241 242 233 233 245 244 246 249 253 252 247 241 244 247 247 256 246 245 244 241 237 241 248 250 233 221 221 225 224 229 242 245 224 235 255 257 165 201 253 204 260 201 197 234 269 215 150 196 194 200 197 206 223 226 222 231 239 236 237 238 237 232 231 238 212 214
241 238 233 234 231 229 234 238 242 242 242 236 240 242 243 242 247 257 254 249 238 246 249 251 254 255 251 251 251 246 242 242 239 222 217 220 219 220 229 236 235 241 247 252 190 194 248 227 253 258 260 196 212 169 223 182 194 202 202 202 216 216 197 220 219 230 230 238 243 244 247 243 230 223
242 239 235 234 232 227 228 235 237 240 241 242 237 244 245 250 255 255 251 255 255 253 252 253 253 252 253 255 245 245 246 246 244 235 225 219 220 221 223 222 229 236 247 250 221 209 231 252 238 243 245 242 258 173 145 231 207 204 195 205 214 214 196 204 206 225 216 214 226 227 232 238 237 230
247 245 242 237 235 234 236 236 238 239 240 242 238 241 246 249 251 253 257 257 259 257 255 254 257 256 254 259 260 259 258 251 245 243 236 228 221 224 226 226 226 230 240 250 222 201 201 234 222 217 234 209 230 230 195 216 240 158 185 211 213 214 200 194 208 216 209 207 218 218 227 245 251 249
255 255 258 327 6 359 1 333 279 262 257 247 256 255 253 253 253 254 252 254 252 256 258 256 255 253 248 250 253 252 252 256 251 252 252 247 237 231 230 230 232 234 240 244 239 210 205 225 237 227 218 216 220 230 250 241 170 172 202 209 208 212 199 200 214 215 212 203 200 201 207 230 230 217
263 266 269 294 302 307 301 292 282 277 259 248 242 245 247 252 259 254 249 250 249 247 246 245 248 250 246 241 247 254 256 260 268 269 269 263 258 249 246 240 235 235 237 241 239 228 220 224 235 240 241 229 230 239 227 242 196 207 198 151 205 214 204 202 207 209 210 197 202 197 206 204 205 195
271 277 280 282 283 281 277 273 263 256 252 242 238 242 246 240 234 235 244 248 242 243 245 244 243 245 247 245 243 245 245 250 251 253 261 267 269 263 259 261 255 244 240 237 235 231 225 225 229 232 238 239 227 238 229 236 246 219 181 198 209 105 208 196 205 211 203 206 208 207 214 200 200 180
269 268 261 255 255 262 271 270 264 263 262 260 249 230 220 221 224 226 221 230 237 245 247 248 248 250 248 250 249 243 237 245 247 239 249 254 256 255 258 261 264 252 240 238 236 230 226 225 224 216 227 235 230 228 233 211 242 222 207 208 168 206 202 192 204 208 207 209 210 212 204 200 210 201
270 274 277 275 276 267 268 268 267 252 241 235 241 238 219 215 217 224 228 233 236 242 245 254 257 258 246 244 243 246 243 245 248 233 237 242 250 245 246 250 254 255 254 237 234 231 228 226 223 217 219 222 230 236 226 212 229 234 229 202 208 228 167 190 199 210 202 190 198 217 210 202 206 205
291 294 282 281 280 277 269 267 260 261 262 255 239 238 231 218 214 214 208 222 231 232 229 238 241 247 243 247 244 246 250 248 247 236 239 239 241 245 232 240 250 249 248 247 234 233 226 228 222 221 220 224 225 229 221 229 231 224 233 211 197 218 215 208 197 200 171 178 212 209 216 216 212 203
282 275 279 272 273 274 275 270 268 266 261 258 253 246 238 228 218 216 219 226 237 233 230 236 239 244 245 250 248 246 248 253 247 239 232 243 235 240 237 241 246 244 242 246 240 233 227 229 227 233 235 237 235 225 217 225 233 225 229 218 192 216 221 199 208 193 182 197 199 207 217 223 219 210
246 257 264 269 266 263 265 264 262 262 261 259 258 256 248 234 229 225 222 222 221 224 228 230 233 240 241 247 247 245 243 245 248 247 235 236 237 237 241 242 247 243 240 246 245 236 218 231 224 244 252 257 267 263 225 217 235 240 237 224 205 214 219 203 200 199 199 208 191 209 220 226 225 214
268 266 264 265 260 260 263 262 263 258 256 255 254 258 255 245 232 222 226 217 211 218 220 226 232 237 241 243 242 238 239 238 244 244 241 231 234 238 240 243 248 250 241 242 243 226 204 218 203 225 242 239 240 259 252 219 213 231 234 239 213 216 220 204 203 194 193 207 201 201 213 220 224 207
260 259 258 262 264 262 263 267 268 263 259 258 257 254 255 256 240 222 221 205 212 211 210 214 225 234 239 238 236 233 233 233 239 241 242 240 239 243 247 249 245 246 246 244 239 230 196 211 202 214 232 242 242 251 252 156 233 232 220 237 235 203 211 197 186 205 212 202 203 206 216 217 224 209
255 257 255 258 260 263 264 268 271 271 266 261 260 258 254 254 253 241 220 206 210 207 200 181 297 251 239 234 233 237 238 236 240 248 249 244 244 244 242 246 249 241 241 243 233 227 204 214 211 209 212 233 249 252 267 247 219 247 218 221 237 227 188 179 199 216 217 205 214 216 214 225 226 209
247 252 253 257 258 257 258 257 256 262 265 266 265 262 261 258 254 251 240 238 237 83 65 154 225 238 240 239 234 236 239 237 238 242 242 239 234 238 240 240 246 246 243 248 234 221 209 217 219 211 204 219 238 266 307 277 250 230 206 202 214 227 204 194 214 217 213 211 223 223 230 255 33 115
240 238 244 247 255 257 257 258 256 255 258 257 259 260 262 263 259 260 254 247 182 131 184 204 223 239 253 250 242 242 244 235 229 233 234 235 233 235 240 241 245 250 250 252 253 230 218 218 214 216 95 25 307 206 216 239 272 218 210 212 207 205 212 191 212 213 223 216 194 191 220 188 214 203
257 254 249 239 247 249 252 254 253 255 257 258 257 257 256 258 257 256 253 250 162 179 196 210 212 230 246 253 239 218 226 232 230 234 238 238 239 236 244 249 254 253 254 262 258 255 240 238 98 83 114 210 214 122 330 280 264 257 232 227 220 218 216 200 207 206 220 188 179 201 205 202 209 195
270 269 267 256 251 255 253 256 254 252 253 251 252 251 250 249 249 247 247 243 199 199 202 171 172 216 230 236 241 221 215 228 230 236 241 240 242 240 238 236 245 249 240 250 256 254 262 149 114 141 180 206 215 204 239 245 253 254 246 241 228 214 222 227 226 218 205 173 179 195 202 213 185 216
268 268 271 271 263 260 258 260 261 257 255 252 250 248 248 248 249 247 240 234 203 203 165 157 203 228 235 239 240 235 218 231 237 240 244 245 243 246 246 239 236 245 247 254 262 268 272 147 126 129 170 194 204 191 228 242 248 260 265 260 245 226 232 228 229 235 235 214 199 197 191 188 164 211
266 277 290 300 309 308 315 320 326 333 325 322 313 302 285 280 271 267 271 278 211 181 142 176 212 232 237 245 263 270 240 241 249 254 253 249 242 242 251 271 279 271 263 259 264 263 252 148 152 154 172 208 195 198 226 240 250 247 255 259 267 245 236 209 220 236 244 259 261 250 235 213 205 209
351 345 336 331 329 328 328 328 328 329 328 328 327 323 324 328 329 329 331 14 148 150 175 203 220 229 235 238 242 254 254 221 217 238 247 263 283 315 332 333 319 278 258 246 246 255 232 204 192 187 202 211 203 211 222 225 239 255 253 256 264 248 240 198 204 224 225 238 241 327 295 291 285 281